Tracking 29065 objects as of 22-Jul-2024
HD Live streaming from Space Station
objects crossing your sky now

COSMOS 1275 DEB

Track COSMOS 1275 DEB now!
10-day predictions


NORAD ID: 12705
Int'l Code: 1981-053AZ
Perigee: 873.6 km
Apogee: 916.3 km
Inclination: 82.9 °
Period: 102.7 minutes
Semi major axis: 7265 km
RCS: 0.2491 m2 (medium)
Launch date: June 4, 1981
Source: Commonwealth of Independent States (former USSR) (CIS)
Launch site: PLESETSK MISSILE AND SPACE COMPLEX (PKMTR)

Note: This is SATELLITE DEBRIS
Your satellite tracking list
Your tracking list is empty




NASA's NSSDC Master Catalog

Two Line Element Set (TLE):
1 12705U 81053AZ  24204.56890108  .00003149  00000-0  20579-2 0  9993
2 12705  82.8877  49.8092 0029338  75.2734 314.0450 14.01726979176852
Source of the keplerian elements: AFSPC